Other Public Products
Issued by NWS Grand Forks, ND

Home | Current Version | Previous Version | Graphics & Text | Print | Product List | Glossary On
Versions: 1 2 3 4 5 6 7 8 9 10 11 12 13 14 15 16 17 18 19 20 21 22 23 24 25 26 27 28 29 30 31 32 33 34 35 36 37 38 39 40 41 42 43 44 45 46 47 48 49 50
000
FPUS83 KFGF 040331
OPUFGF
PRAIRIE TO PINES WEATHER ROUNDUP
NATIONAL WEATHER SERVICE EASTERN NORTH DAKOTA/GRAND FORKS ND
1000 PM CDT TUE MAY 03 2016

 **SATELLITE DATA USED TO AUGMENT SKY COVER AT AUTOMATED STATIONS**
 *****  WEATHER ACROSS EASTERN NORTH DAKOTA  *****

CITY           SKY/WX    TMP DP  RH WIND       PRES   REMARKS
GRAND FORKS    CLEAR     50  31  48 N10       29.98R
GRAND FORKS AF CLEAR     49  32  52 N9        29.99R
GRAND CITY NWS NOT AVBL
BUXTON           N/A     53  30  41 N9          N/A
DEVILS LAKE    CLEAR     51  29  42 NE10      30.04R
FARGO          CLEAR     56  28  34 N17       29.94R
WAHPETON ARPT  CLEAR     55  27  33 N14G20    29.93R
$$

 *****  WEATHER ACROSS CENTRAL AND WESTERN NORTH DAKOTA  *****

CITY           SKY/WX    TMP DP  RH WIND       PRES   REMARKS
JAMESTOWN      CLEAR     51  26  37 NE13      29.99R
BISMARCK       CLEAR     60  28  29 NE10      30.02R
MINOT          CLEAR     56  26  31 NW3       30.03R
MINOT AFB      CLEAR     61  28  29 NE2       30.02R
GARRISON         N/A     55  32  41 NE3       30.03R
WILLISTON      CLEAR     62  40  44 E5        30.04R
DICKINSON      CLEAR     61  37  41 N5        30.05R
HETTINGER      CLEAR     59  36  42 NE12      30.08R
$$

 *****  OTHER OBSERVATIONS NORTHEAST NORTH DAKOTA  *****

CITY           SKY/WX    TMP DP  RH WIND       PRES   REMARKS
WALHALLA       FAIR      48  34  57 N7        30.04R
LANGDON        FAIR      43  30  61 N8        30.05R
CAVALIER       FAIR      50  36  57 N12       30.03R
GRAFTON        FAIR      50  32  50 N10       30.03R
CANDO          FAIR      48  28  46 NE7       30.07R
FORT TOTTEN      N/A     53  29  39 NE6       29.95S
ROLLA          FAIR      45  25  45 NE3       30.06R
RUGBY          FAIR      48  28  46 NE9       30.04R
 ***** THE ABOVE OBSERVATIONS ARE NON NWS ARE NOT QUALITY
        CONTROLLED AND MAY MIS-REPORT RAIN FOR SNOW...
$$

 *****  OTHER OBSERVATIONS SOUTHEAST NORTH DAKOTA *****

CITY           SKY/WX    TMP DP  RH WIND       PRES   REMARKS
COOPERSTOWN    NOT AVBL
VALLEY CITY    FAIR      50  30  46 N9        30.01R
OAKES            N/A    N/A N/A N/A MISG        N/A
GWINNER        FAIR      55  32  41 N14       29.97R
SHEYENNE NWR     N/A     57  29  34 N7        29.95S
BUFFALO          N/A     52  26  37 N12         N/A
WYNDMERE         N/A     55  28  35 N9          N/A
 ***** THE ABOVE OBSERVATIONS ARE NON NWS ARE NOT QUALITY
       CONTROLLED AND MAY MIS-REPORT RAIN FOR SNOW...
$$

  *****  WEATHER ACROSS NORTHERN MINNESOTA  *****

CITY           SKY/WX    TMP DP  RH WIND       PRES   REMARKS
FLAG ISLAND    CLEAR     52  36  54 N6        29.95R
WARROAD        CLEAR     48  37  66 NW8       29.97R
ROSEAU         CLEAR     48  37  66 NW10      29.97R
HALLOCK        CLEAR     48  28  46 N10       30.00S
THF RVR FALLS  CLEAR     50  32  50 NW12      29.98R
HALSTAD        NOT AVBL
FOSSTON        CLEAR     46  30  53 N8        29.95R
BAUDETTE       CLEAR     48  31  51 N6        29.94R
WASKISH        CLEAR     48  36  61 N5        29.94R
CROOKSTON      CLEAR     52  30  43 N13       29.98R
$$
  *****  WEATHER ACROSS CENTRAL AND WEST MINNESOTA  *****

CITY           SKY/WX    TMP DP  RH WIND       PRES   REMARKS
BEMIDJI        CLEAR     50  33  50 N6        29.92R
PARK RAPIDS    CLEAR     56  30  37 N14G24    29.89R
WADENA         CLEAR     52  30  43 N7        29.89R
DETROIT LAKES  CLEAR     54  34  47 N6        29.93R
MOORHEAD       CLEAR     54  27  35 N15       29.96R
FERGUS FALLS   CLEAR     54  30  40 N10       29.89R
ELBOW LAKE     FAIR      55  32  41 NW13      29.90R
MORRIS MN      CLEAR     55  27  33 N15       29.88R
STAPLES        CLEAR     52  27  37 N10       29.88R
WHEATON        CLEAR     55  30  38 N12       29.94R
$$
  *****  WEATHER ELSEWHERE ACROSS MINNESOTA  *****

CITY           SKY/WX    TMP DP  RH WIND       PRES   REMARKS
DULUTH         CLEAR     52  32  46 N13G25    29.83R
INTRNTL FALLS  CLEAR     48  32  53 N3        29.92R
ELY            CLEAR     46  28  49 N5        29.87R
CLOQUET        CLEAR     54  30  40 N13G21    29.84R
BRAINERD       NOT AVBL
HIBBING        CLEAR     48  29  47 N9        29.87R
ALEXANDRIA     CLEAR     55  29  36 N12       29.88R
SAINT CLOUD    PTCLDY    56  26  31 N9        29.81R
MINNEAPOLIS    CLEAR     62  25  24 N16G23    29.75R
$$

  *****  WEATHER ACROSS SOUTH DAKOTA  *****

CITY           SKY/WX    TMP DP  RH WIND       PRES   REMARKS
SIOUX FALLS    CLEAR     57  32  38 N13       29.88R
BROOKINGS      CLEAR     53  31  42 N9        29.89R
WATERTOWN      CLEAR     53  29  39 N13       29.92R
HURON          CLEAR     55  32  41 N10       29.93R
SISSETON         N/A     57  30  35 N20       29.91R
ABERDEEN       CLEAR     56  31  38 N12       29.96R
MITCHELL       CLEAR     58  36  43 N10       29.92R
PIERRE         CLEAR     57  42  57 N10       29.98R
MOBRIDGE       CLEAR     55  38  52 NE7       29.98R
RAPID CITY     CLEAR     54  40  59 N10       30.09R
$$

  *****  SOME WEATHER IN NEARBY STATES *****

CITY           SKY/WX    TMP DP  RH WIND       PRES   REMARKS
GLASGOW MT     CLEAR     67  39  35 S7        30.03R
GREAT FALLS MT CLEAR     66  38  35 SE7       30.02S
CHEYENNE WY    CLEAR     54  34  46 N5        30.25R
SCOTTSBLUFF NE CLEAR     56  40  55 NE7       30.14R
OMAHA NE       CLEAR     63  43  48 W7        29.86F
DES MOINES IA  CLOUDY    59  43  55 SW10      29.79F
DAVENPORT IA   CLOUDY    59  42  53 SW14      29.74F
CHICAGO IL     CLOUDY    60  40  47 SW12      29.72F
EAU CLAIRE WI  MOCLDY    51  47  86 NE6       29.72R
LA CROSSE WI   MOCLDY    51  49  92 CALM      29.68R
$$

  *****  SOME NATIONAL WEATHER *****

CITY           SKY/WX    TMP DP  RH WIND       PRES   REMARKS
LA GUARDIA NY  DRIZZLE   52  52 100 SE5       29.84F FOG
RALEIGH NC     CLOUDY    64  63  96 CALM      29.76S
ATLANTA GA     PTCLDY    63  52  67 W6        29.86S
NEW ORLEANS LA PTCLDY    71  64  78 NW5       29.93R
OKLAHOMA CITY  PTCLDY    56  48  74 S5        30.03R
ALBUQUERQUE NM PTCLDY    65  29  25 E12       30.20R
SALT LAKE CITY PTCLDY    64  37  36 W6        30.13R
LOS ANGELES CA CLOUDY    59  54  83 W13       29.93R
BOISE ID       CLEAR     71  32  23 SE7       30.00S
SEATTLE WA     CLOUDY    64  51  62 W3        30.06R
$$

*** WEATHER ACROSS MANITOBA...SASKATCHEWAN AND ONTARIO ***
                ***ONTARIO***

CITY           SKY/WX    TMP DP  RH WIND       PRES   REMARKS
GERALDTON      LGT RAIN  36  34  93 N7G17     29.76R FOG
THUNDER BAY    MOCLDY    43  34  70 W6        29.79F
SIOUX LOOKOUT  PTCLDY    45  32  61 N7        29.89S
TORONTO        PTCLDY    45  37  76 S5        29.79F
BIG TROUT LK   CLOUDY    32  23  69 N13G20    29.99R WCI  22
PICKLE LAKE    NOT AVBL
DRYDEN         CLEAR     46  32  57 N6        29.91S
KENORA         CLEAR     48  32  53 N8        29.95R
$$
                *** MANITOBA***

CITY           SKY/WX    TMP DP  RH WIND       PRES   REMARKS
BRANDON        PTCLDY    48  27  43 NE10      30.05S
DAUPHIN        CLEAR     50  27  40 CALM      30.06S
ISLAND LAKE    PTCLDY    37  25  60 N6        30.07S
PILOT MOUND      N/A     48  30  49 NE8         N/A
THE PAS        CLOUDY    50  32  50 S3        30.02F
THOMPSON       PTCLDY    37  23  56 VRB2      30.05F
WINNIPEG       CLEAR     46  34  61 NE7       30.04R
LYNN LAKE      MOCLDY    50  28  43 E6        29.99F
CHURCHILL      MOCLDY    25  18  74 VRB2      30.13F
GILLAM         PTCLDY    30  16  55 E3        30.12S
$$
                ***SASKATCHEWAN***

CITY           SKY/WX    TMP DP  RH WIND       PRES   REMARKS
ESTEVAN        PTCLDY    59  37  44 E7        30.03S
KINDERSLEY     PTCLDY    68  34  28 SE8       29.93S
LLOYDMINSTER   PTCLDY    70  37  30 S7        29.87F
PRINCE ALBERT  CLOUDY    63  41  45 E6        29.92S
REGINA         PTCLDY    63  39  42 SE12      30.00S
YORKTON        CLEAR     59  32  36 SE6       30.01S  C1F1C2F2C3F3C4F4C5F5C6F6C7F7C8F8C9F9CaFaCbFbCcFcCdFdCe!



USA.gov is the U.S. government's official web portal to all federal, state and local government web resources and services.